Starlink 3980

operational
NORAD ID: 52611 Int'l Des: 2022-052 Owner: SPXS Country: US Constellation: starlink
LEOCIRCULAR

关于 Starlink 3980

正在加载描述...

实时位置

正在加载3D地球...

即将过境

高度历史

Altitude vs Time

uPlot chart will show altitude changes over time

两行轨道根数

1 52611U 22052P 25296.95973868 .00003067 00000-0 21056-3 0 9998
2 52611 53.2181 177.9247 0001609 89.3734 270.7443 15.08862959190149
Epoch: Oct 23, 2025 • Age: 20 hours

当前状态

高度 540.3 km
速度 7.60 km/s
星下点 27.45°N, 16.85°E
发射日期 May 14, 2022
运行时间 3.4 years
类型 internet

技术详情

分类 Payload
质量 297.00 kg
干质量 275.00 kg
总质量 297.00 kg
长度 0.20 m
直径 2.80 m
跨度 9.00 m
形状 Box + pan
制造商 SPXS
平台类型 Starlink
阶段状态 In Orbit
所有者/国家 SPXS/US

大型星座

Loading constellations...